Simultaneous Nadir Overpasses (SNOs) Predictions

Prediction of SNOs between GOES-15 and NPP Satellite Orbit:

Table of predicted SNOs for the next 14.0 days since TLE Epoch: 12/2/2011
Index Date Time (GOES-15) GOES-15 Lat,Lon NPP Lat,Lon Distance(km) Time Diff (sec)
1 12/03/2011 09:55:57 -0.01,-126.88 0.08,-127.35 53.53 80
2 12/05/2011 21:56:33 0.01,-129.11 0.18,-128.22 100.51 80
3 12/07/2011 10:21:03 -0.03,-130.11 0.75,-133.54 391.56 80
4 12/08/2011 09:59:40 -0.01,-130.89 -0.40,-129.04 209.94 80
5 12/09/2011 22:24:20 0.02,-132.30 -0.42,-134.42 240.96 80
6 12/10/2011 22:02:57 0.01,-133.09 0.73,-129.92 361.46 80
7 12/12/2011 10:27:26 -0.02,-134.08 0.25,-135.23 131.10 80
8 12/13/2011 10:06:04 -0.01,-134.85 -0.96,-130.74 469.47 80
9 12/14/2011 22:30:43
